Location: Duncanville
(32.6518°N, 96.9083°W)
Time: 10:32:23
(UTC+00:00)

Cosmos 2369 - Pass Details

Date: 11 February 2026
Orbit: 840 x 853 km, 71.0° (Epoch: 7 March)

Event Time Altitude Azimuth Distance (km) Brightness Sun altitude
Rises 12:39:09 0° 217° (SW) 3,396 6.6 -8.0°
Reaches altitude 10° 12:41:43 10° 224° (SW) 2,462 5.8 -7.5°
Maximum altitude 12:47:03 43° 295° (WNW) 1,172 4.0 -6.4°
Drops below altitude 10° 12:52:25 10° 6° (N) 2,465 6.1 -5.3°
Sets 12:55:00 0° 13° (NNE) 3,401 6.9 -4.8°
